LKPD Weather Reports


time (UTC)temp
F
wind
direction
speed
knots
gust
knots
rain 1hr
in
rain 24hr
in
rain mn
in
humidity
%
barometer
mb
20260504220226 55 0 0.9 0.0 0.00 0.00 0.00 76 1011.0
20260504213210 57 0 0.0 0.0 0.00 0.00 0.00 71 1011.0
20260504211942 59 0 0.0 0.0 0.00 0.00 0.00 67
20260504210220 57 0 0.0 0.0 0.00 0.00 0.00 71 1011.0
20260504203209 59 0 0.0 0.0 0.00 0.00 0.00 72 1012.0
20260504201941 61 0 0.0 0.0 0.00 0.00 0.00 67
20260504200219 59 120 0.9 0.0 0.00 0.00 0.00 72 1011.0
20260504193210 64 0 0.9 0.0 0.00 0.00 0.00 59 1011.0
20260504191943 66 140 1.7 0.0 0.00 0.00 0.00 52
20260504190226 66 0 0.0 0.0 0.00 0.00 0.00 52 1011.0
20260504183217 72 350 2.6 0.0 0.00 0.00 0.00 43 1011.0
20260504181944 72 350 1.7 0.0 0.00 0.00 0.00 40
20260504180219 72 340 2.6 0.0 0.00 0.00 0.00 43 1011.0
20260504173216 73 340 2.6 0.0 0.00 0.00 0.00 38 1011.0
20260504171945 75 340 1.7 0.0 0.00 0.00 0.00 36
20260504170219 75 310 2.6 0.0 0.00 0.00 0.00 36 1011.0
20260504160227 75 290 2.6 0.0 0.00 0.00 0.00 33 1011.0
20260504150218 75 160 2.6 0.0 0.00 0.00 0.00 38 1012.0
20260504140219 77 200 2.6 0.0 0.00 0.00 0.00 33 1012.0
20260504130233 77 0 2.6 0.0 0.00 0.00 0.00 36 1013.0
20260504120226 73 0 1.7 0.0 0.00 0.00 0.00 38 1013.0
20260504110225 70 0 2.6 0.0 0.00 0.00 0.00 43 1014.0
20260504100219 68 90 4.3 0.0 0.00 0.00 0.00 42 1014.0
20260504081941 64 150 6.1 0.0 0.00 0.00 0.00 45
20260504080225 64 150 6.1 0.0 0.00 0.00 0.00 45 1014.0
20260504070216 61 100 7.8 0.0 0.00 0.00 0.00 55 1014.0
20260504060227 59 0 1.7 0.0 0.00 0.00 0.00 51 1014.0
20260504050229 52 0 0.9 0.0 0.00 0.00 0.00 66 1014.0
20260504043209 48 0 1.7 0.0 0.00 0.00 0.00 76 1014.0
20260504041943 52 320 1.7 0.0 0.00 0.00 0.00 62
20260504040219 46 0 0.9 0.0 0.00 0.00 0.00 75 1014.0
20260504033216 48 0 1.7 0.0 0.00 0.00 0.00 70 1014.0
20260504031941 52 300 1.7 0.0 0.00 0.00 0.00 57
20260504030217 50 270 4.3 0.0 0.00 0.00 0.00 66 1014.0
20260504023209 54 0 1.7 0.0 0.00 0.00 0.00 58 1013.0
20260504021943 55 50 1.7 0.0 0.00 0.00 0.00 50
20260504020226 54 0 0.9 0.0 0.00 0.00 0.00 58 1013.0
20260504013209 54 20 2.6 0.0 0.00 0.00 0.00 58 1013.0
20260504011941 54 10 1.7 0.0 0.00 0.00 0.00 54
20260504010220 54 350 2.6 0.0 0.00 0.00 0.00 58 1013.0
20260504003210 54 110 7.0 0.0 0.00 0.00 0.00 58 1013.0
20260504001942 57 90 4.3 0.0 0.00 0.00 0.00 47
20260504000226 54 100 5.2 0.0 0.00 0.00 0.00 58 1013.0
20260503233210 57 30 4.3 0.0 0.00 0.00 0.00 50 1013.0
20260503231944 59 40 4.3 0.0 0.00 0.00 0.00 47
20260503230218 57 0 1.7 0.0 0.00 0.00 0.00 50 1013.0
20260503223210 61 70 7.0 0.0 0.00 0.00 0.00 44 1013.0
20260503221942 61 70 6.1 0.0 0.00 0.00 0.00 44